FDX757 KOAK-KSGU

Flight info

Callsign FDX757
Flight time N/A
Altitude 37000
Route OAK6 OAK SYRAH Q128 JSICA ILC EHK PIETZ
Aircraft B738/M-SDE2E3FGHIRWXY/LB1

Departure

Time 2026-04-29 21:51
Airport San Francisco Bay Oakland International Airport (KOAK)

Arrival

Time N/A
Airport St George Regional Airport (KSGU)
Time Latitude Longitude Altitude Speed Heading
2026-04-29 21:39 37.71927 -122.21122 15 ft 0 kts 281°
2026-04-29 21:45 37.71927 -122.21123 15 ft 1 kts 281°
2026-04-29 21:46 37.71932 -122.21161 15 ft 8 kts 276°
2026-04-29 21:46 37.71958 -122.21242 16 ft 13 kts 310°
2026-04-29 21:46 37.71924 -122.21348 17 ft 17 kts 227°
2026-04-29 21:46 37.71835 -122.21471 18 ft 22 kts 228°
2026-04-29 21:47 37.71722 -122.21631 16 ft 27 kts 229°
2026-04-29 21:47 37.71591 -122.21822 15 ft 31 kts 229°
2026-04-29 21:47 37.71451 -122.22020 15 ft 31 kts 228°
2026-04-29 21:47 37.71369 -122.22135 14 ft 0 kts 228°
2026-04-29 21:48 37.71348 -122.22165 15 ft 8 kts 228°
2026-04-29 21:48 37.71276 -122.22165 16 ft 17 kts 131°
2026-04-29 21:48 37.71169 -122.22004 15 ft 30 kts 130°
2026-04-29 21:49 37.71006 -122.21791 17 ft 35 kts 135°
2026-04-29 21:49 37.70888 -122.21619 18 ft 17 kts 160°
2026-04-29 21:49 37.70795 -122.21680 20 ft 16 kts 220°
2026-04-29 21:49 37.70699 -122.21779 21 ft 19 kts 219°
2026-04-29 21:50 37.70639 -122.21848 22 ft 0 kts 229°
2026-04-29 21:50 37.70622 -122.21912 22 ft 19 kts 270°
2026-04-29 21:50 37.70655 -122.22173 18 ft 48 kts 292°
2026-04-29 21:50 37.71064 -122.22808 16 ft 135 kts 310°
2026-04-29 21:51 37.71765 -122.23920 432 ft 179 kts 307°
2026-04-29 21:51 37.72597 -122.25205 1330 ft 202 kts 308°
2026-04-29 21:51 37.74520 -122.28119 2344 ft 234 kts 310°
2026-04-29 21:52 37.75602 -122.29692 2337 ft 235 kts 310°
2026-04-29 21:52 37.76675 -122.31250 2325 ft 236 kts 309°
2026-04-29 21:52 37.77782 -122.32880 2543 ft 252 kts 309°
2026-04-29 21:52 37.78845 -122.34659 3220 ft 261 kts 294°
2026-04-29 21:53 37.79180 -122.36877 4201 ft 261 kts 266°
2026-04-29 21:53 37.78635 -122.39103 5018 ft 272 kts 239°
2026-04-29 21:53 37.77284 -122.40794 5848 ft 279 kts 210°
2026-04-29 21:53 37.75436 -122.41520 6699 ft 285 kts 182°
2026-04-29 21:54 37.73471 -122.41080 7506 ft 286 kts 154°
2026-04-29 21:54 37.71911 -122.39576 8299 ft 289 kts 126°
2026-04-29 21:54 37.71075 -122.37295 9070 ft 290 kts 97°
2026-04-29 21:54 37.71105 -122.34747 9919 ft 290 kts 80°
2026-04-29 21:55 37.71424 -122.32221 10471 ft 303 kts 78°
2026-04-29 21:55 37.71784 -122.29457 10653 ft 329 kts 79°
2026-04-29 21:55 37.72139 -122.26522 10934 ft 348 kts 79°
2026-04-29 21:55 37.72487 -122.23475 11532 ft 356 kts 79°
2026-04-29 21:56 37.73017 -122.20410 12307 ft 356 kts 72°
2026-04-29 21:56 37.73729 -122.17409 13076 ft 359 kts 70°
2026-04-29 21:56 37.74478 -122.14370 13796 ft 363 kts 70°
2026-04-29 21:56 37.75232 -122.11332 14444 ft 366 kts 70°
2026-04-29 21:57 37.75997 -122.08227 15089 ft 370 kts 70°
2026-04-29 21:57 37.76757 -122.05115 15747 ft 373 kts 70°
2026-04-29 21:57 37.77515 -122.01987 16391 ft 376 kts 71°
2026-04-29 21:57 37.78283 -121.98804 16998 ft 379 kts 70°
2026-04-29 21:58 37.79051 -121.95607 17617 ft 383 kts 70°
2026-04-29 21:58 37.79826 -121.92367 18224 ft 387 kts 70°
2026-04-29 21:58 37.80609 -121.89089 18784 ft 390 kts 70°
2026-04-29 21:58 37.81388 -121.85824 19323 ft 393 kts 70°
2026-04-29 21:59 37.82184 -121.82485 19843 ft 396 kts 70°
2026-04-29 21:59 37.82985 -121.79118 20388 ft 399 kts 70°
2026-04-29 21:59 37.83782 -121.75762 20907 ft 402 kts 69°
2026-04-29 21:59 37.84593 -121.72340 21416 ft 406 kts 69°
2026-04-29 22:00 37.85400 -121.68936 21906 ft 409 kts 69°
2026-04-29 22:00 37.86224 -121.65451 22412 ft 412 kts 69°
2026-04-29 22:00 37.87042 -121.61986 22892 ft 416 kts 69°
2026-04-29 22:00 37.87878 -121.58440 23368 ft 419 kts 68°
2026-04-29 22:01 37.88710 -121.54908 23804 ft 422 kts 68°
2026-04-29 22:01 37.89552 -121.51327 24190 ft 425 kts 69°
2026-04-29 22:01 37.90398 -121.47718 24578 ft 428 kts 69°
2026-04-29 22:01 37.91241 -121.44124 24957 ft 431 kts 69°
2026-04-29 22:02 37.92099 -121.40454 25319 ft 434 kts 69°
2026-04-29 22:02 37.92964 -121.36752 25559 ft 440 kts 69°
2026-04-29 22:02 37.93824 -121.33066 25993 ft 441 kts 69°
2026-04-29 22:02 37.94694 -121.29323 26432 ft 441 kts 69°
2026-04-29 22:03 37.95557 -121.25609 26785 ft 444 kts 69°
2026-04-29 22:03 37.96435 -121.21829 27091 ft 448 kts 69°
2026-04-29 22:03 37.97321 -121.18007 27409 ft 451 kts 69°
2026-04-29 22:03 37.98196 -121.14223 27736 ft 453 kts 69°
2026-04-29 22:04 37.99084 -121.10348 28079 ft 456 kts 70°
2026-04-29 22:04 37.99817 -121.06403 28415 ft 460 kts 73°
2026-04-29 22:04 38.00447 -121.02448 28841 ft 460 kts 75°
2026-04-29 22:04 38.01036 -120.98491 29328 ft 459 kts 75°
2026-04-29 22:05 38.01618 -120.94506 29821 ft 458 kts 75°
2026-04-29 22:05 38.02203 -120.90533 30272 ft 457 kts 75°
2026-04-29 22:05 38.03387 -120.82643 30959 ft 456 kts 74°
2026-04-29 22:06 38.03988 -120.78689 30957 ft 456 kts 74°
2026-04-29 22:06 38.05198 -120.70776 30980 ft 454 kts 74°
2026-04-29 22:07 38.06191 -120.64260 30988 ft 454 kts 74°
2026-04-29 22:07 38.07586 -120.55072 30972 ft 455 kts 74°
2026-04-29 22:08 38.08778 -120.47167 30979 ft 455 kts 74°
2026-04-29 22:08 38.09959 -120.39298 30976 ft 455 kts 74°
2026-04-29 22:09 38.11145 -120.31368 30979 ft 456 kts 74°
2026-04-29 22:09 38.12316 -120.23482 30974 ft 456 kts 75°
2026-04-29 22:10 38.13488 -120.15555 30988 ft 456 kts 75°
2026-04-29 22:10 38.14647 -120.07676 30968 ft 457 kts 75°
2026-04-29 22:11 38.15812 -119.99724 30973 ft 457 kts 75°
2026-04-29 22:11 38.16967 -119.91805 30975 ft 456 kts 75°
2026-04-29 22:12 38.18120 -119.83863 30985 ft 455 kts 75°
2026-04-29 22:12 38.19261 -119.75950 30967 ft 456 kts 75°
2026-04-29 22:13 38.20207 -119.69361 30960 ft 456 kts 75°
2026-04-29 22:13 38.21342 -119.61418 30965 ft 456 kts 75°
2026-04-29 22:14 38.22471 -119.53494 30971 ft 457 kts 75°
2026-04-29 22:14 38.23597 -119.45538 30955 ft 458 kts 75°
2026-04-29 22:15 38.24722 -119.37548 30950 ft 457 kts 75°
2026-04-29 22:15 38.25838 -119.29574 30934 ft 458 kts 75°
2026-04-29 22:16 38.26948 -119.21620 30942 ft 458 kts 75°
2026-04-29 22:16 38.28055 -119.13637 30937 ft 459 kts 75°
2026-04-29 22:17 38.29162 -119.05614 30941 ft 460 kts 75°
2026-04-29 22:17 38.30265 -118.97580 30930 ft 461 kts 75°
2026-04-29 22:18 38.31364 -118.89530 30952 ft 462 kts 75°
2026-04-29 22:18 38.32456 -118.81484 30957 ft 463 kts 75°
2026-04-29 22:19 38.33544 -118.73432 30965 ft 463 kts 76°
2026-04-29 22:19 38.34631 -118.65337 30969 ft 464 kts 76°
2026-04-29 22:20 38.35720 -118.57187 30966 ft 464 kts 76°
2026-04-29 22:20 38.36789 -118.49136 30965 ft 463 kts 76°
2026-04-29 22:21 38.37859 -118.41046 30952 ft 463 kts 76°
2026-04-29 22:21 38.38922 -118.32956 30950 ft 463 kts 76°
2026-04-29 22:22 38.39981 -118.24854 30930 ft 464 kts 76°
2026-04-29 22:22 38.41038 -118.16726 30925 ft 465 kts 76°
2026-04-29 22:23 38.42098 -118.08526 30937 ft 467 kts 76°
2026-04-29 22:23 38.43143 -118.00395 30934 ft 469 kts 76°
2026-04-29 22:24 38.44199 -117.92134 30939 ft 471 kts 76°
2026-04-29 22:24 38.45248 -117.83876 30929 ft 472 kts 76°
2026-04-29 22:25 38.46290 -117.75618 30944 ft 473 kts 76°
2026-04-29 22:25 38.47328 -117.67348 30944 ft 473 kts 77°
2026-04-29 22:26 38.48362 -117.59069 30955 ft 474 kts 77°
2026-04-29 22:26 38.49395 -117.50743 30949 ft 474 kts 77°
2026-04-29 22:27 38.50418 -117.42450 30959 ft 474 kts 77°
2026-04-29 22:27 38.51442 -117.34102 30951 ft 474 kts 77°
2026-04-29 22:28 38.51977 -117.25731 30942 ft 479 kts 91°
2026-04-29 22:28 38.51293 -117.17223 30957 ft 480 kts 95°
2026-04-29 22:29 38.50511 -117.08782 30959 ft 481 kts 95°
2026-04-29 22:29 38.49759 -117.00281 30947 ft 481 kts 95°
2026-04-29 22:30 38.49036 -116.91763 30964 ft 480 kts 95°
2026-04-29 22:30 38.48324 -116.83314 30960 ft 481 kts 95°
2026-04-29 22:31 38.47603 -116.74831 30963 ft 481 kts 96°
2026-04-29 22:31 38.46875 -116.66374 30955 ft 481 kts 96°
2026-04-29 22:32 38.46136 -116.57858 30959 ft 481 kts 96°
2026-04-29 22:32 38.45394 -116.49398 30952 ft 481 kts 96°
2026-04-29 22:33 38.44642 -116.40881 30942 ft 481 kts 97°
2026-04-29 22:33 38.43890 -116.32437 30943 ft 481 kts 97°
2026-04-29 22:34 38.43129 -116.23955 30941 ft 481 kts 97°
2026-04-29 22:34 38.42359 -116.15460 30933 ft 481 kts 97°
2026-04-29 22:35 38.41586 -116.06992 30935 ft 480 kts 98°
2026-04-29 22:35 38.40809 -115.98539 30920 ft 480 kts 98°
2026-04-29 22:36 38.40023 -115.90073 30917 ft 480 kts 98°
2026-04-29 22:36 38.39232 -115.81611 30915 ft 481 kts 98°
2026-04-29 22:37 38.38436 -115.73162 30915 ft 481 kts 98°
2026-04-29 22:37 38.37633 -115.64711 30916 ft 481 kts 99°
2026-04-29 22:38 38.36827 -115.56285 30920 ft 482 kts 99°
2026-04-29 22:38 38.36006 -115.47771 30887 ft 482 kts 99°
2026-04-29 22:39 38.35185 -115.39332 30899 ft 482 kts 99°
2026-04-29 22:39 38.34353 -115.30839 30900 ft 482 kts 99°
2026-04-29 22:40 38.33519 -115.22387 30900 ft 482 kts 100°
2026-04-29 22:40 38.32683 -115.13956 30697 ft 476 kts 100°
2026-04-29 22:40 38.32270 -115.09822 30450 ft 472 kts 100°
2026-04-29 22:41 38.31855 -115.05683 30218 ft 469 kts 100°
2026-04-29 22:41 38.31438 -115.01546 29862 ft 467 kts 98°
2026-04-29 22:41 38.31023 -114.97507 29585 ft 462 kts 97°
2026-04-29 22:41 38.30610 -114.93447 29294 ft 457 kts 97°
2026-04-29 22:42 38.30208 -114.89477 29023 ft 455 kts 97°
2026-04-29 22:42 38.29803 -114.85485 28759 ft 453 kts 97°
2026-04-29 22:42 38.29396 -114.81505 28475 ft 452 kts 97°
2026-04-29 22:42 38.28987 -114.77521 28210 ft 451 kts 97°
2026-04-29 22:43 38.28584 -114.73606 27958 ft 450 kts 98°
2026-04-29 22:43 38.28176 -114.69663 27691 ft 449 kts 98°
2026-04-29 22:43 38.27765 -114.65705 27433 ft 448 kts 98°
2026-04-29 22:43 38.27359 -114.61810 27174 ft 447 kts 98°
2026-04-29 22:44 38.26947 -114.57869 26918 ft 446 kts 98°
2026-04-29 22:44 38.26541 -114.53996 26663 ft 444 kts 98°
2026-04-29 22:44 38.26131 -114.50092 26419 ft 443 kts 98°
2026-04-29 22:44 38.25722 -114.46208 26168 ft 441 kts 98°
2026-04-29 22:45 38.25311 -114.42339 25925 ft 440 kts 98°
2026-04-29 22:45 38.24691 -114.38575 25682 ft 437 kts 108°
2026-04-29 22:45 38.23620 -114.34965 25433 ft 434 kts 115°
2026-04-29 22:45 38.22405 -114.31450 25187 ft 431 kts 116°
2026-04-29 22:46 38.21176 -114.27972 24942 ft 429 kts 116°
2026-04-29 22:46 38.19967 -114.24553 24711 ft 427 kts 116°
2026-04-29 22:46 38.18751 -114.21093 24480 ft 426 kts 116°
2026-04-29 22:46 38.17562 -114.17682 24245 ft 424 kts 115°
2026-04-29 22:47 38.16367 -114.14236 24006 ft 423 kts 115°
2026-04-29 22:47 38.15182 -114.10805 23786 ft 422 kts 115°
2026-04-29 22:47 38.14014 -114.07419 23553 ft 421 kts 115°
2026-04-29 22:47 38.12837 -114.04010 23276 ft 420 kts 115°
2026-04-29 22:48 38.11666 -114.00621 23007 ft 418 kts 115°
2026-04-29 22:48 38.10498 -113.97245 22732 ft 416 kts 115°
2026-04-29 22:48 38.09334 -113.93883 22466 ft 413 kts 115°
2026-04-29 22:48 38.08173 -113.90536 22203 ft 411 kts 115°
2026-04-29 22:49 38.07034 -113.87256 21940 ft 408 kts 115°
2026-04-29 22:49 38.05887 -113.83957 21687 ft 406 kts 115°
2026-04-29 22:49 38.04749 -113.80686 21424 ft 403 kts 115°
2026-04-29 22:49 38.03634 -113.77485 21167 ft 400 kts 115°
2026-04-29 22:50 38.02513 -113.74272 20914 ft 397 kts 115°
2026-04-29 22:50 38.01393 -113.71064 20662 ft 395 kts 115°
2026-04-29 22:50 38.00276 -113.67871 20415 ft 393 kts 115°
2026-04-29 22:50 37.99185 -113.64752 20165 ft 390 kts 115°
2026-04-29 22:51 37.98084 -113.61609 19921 ft 388 kts 115°
2026-04-29 22:51 37.96988 -113.58484 19672 ft 386 kts 115°
2026-04-29 22:51 37.94811 -113.52285 19186 ft 382 kts 115°
2026-04-29 22:52 37.93729 -113.49208 18944 ft 380 kts 115°
2026-04-29 22:52 37.92652 -113.46151 18709 ft 379 kts 115°
2026-04-29 22:52 37.91592 -113.43143 18496 ft 378 kts 115°
2026-04-29 22:52 37.90519 -113.40101 18256 ft 376 kts 115°
2026-04-29 22:53 37.89450 -113.37075 17991 ft 375 kts 115°
2026-04-29 22:53 37.88395 -113.34092 17742 ft 374 kts 115°
2026-04-29 22:53 37.87334 -113.31095 17479 ft 372 kts 115°
2026-04-29 22:53 37.86267 -113.28080 17220 ft 371 kts 115°
2026-04-29 22:54 37.85213 -113.25108 16961 ft 369 kts 115°
2026-04-29 22:54 37.84168 -113.22161 16720 ft 367 kts 115°
2026-04-29 22:54 37.83130 -113.19238 16471 ft 365 kts 115°
2026-04-29 22:54 37.82095 -113.16327 16222 ft 362 kts 115°
2026-04-29 22:55 37.81402 -113.14383 16058 ft 360 kts 115°
2026-04-29 22:55 37.80141 -113.11684 15781 ft 356 kts 133°
2026-04-29 22:55 37.78203 -113.09767 15541 ft 349 kts 155°
2026-04-29 22:55 37.75919 -113.08876 15307 ft 343 kts 175°
2026-04-29 22:56 37.73563 -113.08917 15059 ft 338 kts 193°
2026-04-29 22:56 37.71325 -113.09701 14842 ft 335 kts 200°
2026-04-29 22:56 37.69106 -113.10646 14585 ft 334 kts 201°
2026-04-29 22:56 37.66939 -113.11619 14299 ft 331 kts 203°
2026-04-29 22:57 37.64798 -113.12768 13854 ft 332 kts 206°
2026-04-29 22:57 37.62022 -113.14391 13213 ft 332 kts 206°
2026-04-29 22:57 37.60632 -113.15213 12948 ft 331 kts 207°
2026-04-29 22:57 37.58545 -113.16442 12574 ft 328 kts 206°
2026-04-29 22:58 37.56485 -113.17644 12179 ft 326 kts 206°
2026-04-29 22:58 37.54445 -113.18826 11795 ft 324 kts 206°
2026-04-29 22:58 37.52396 -113.20008 11395 ft 323 kts 206°
2026-04-29 22:58 37.50351 -113.21183 11088 ft 319 kts 206°
2026-04-29 22:59 37.48375 -113.22316 10980 ft 308 kts 206°
2026-04-29 22:59 37.46447 -113.23418 10884 ft 297 kts 206°
2026-04-29 22:59 37.44591 -113.24478 10813 ft 286 kts 206°
2026-04-29 22:59 37.42835 -113.25480 10755 ft 271 kts 206°
2026-04-29 23:00 37.41154 -113.26440 10649 ft 256 kts 206°
2026-04-29 23:00 37.39575 -113.27342 10552 ft 241 kts 206°
2026-04-29 23:00 37.38093 -113.28188 10421 ft 227 kts 206°
2026-04-29 23:00 37.36711 -113.28990 10308 ft 215 kts 208°
2026-04-29 23:01 37.35374 -113.29836 10023 ft 213 kts 210°
2026-04-29 23:01 37.34050 -113.30689 9686 ft 212 kts 209°
2026-04-29 23:01 37.32777 -113.31507 9552 ft 200 kts 209°
2026-04-29 23:01 37.31561 -113.32286 9299 ft 194 kts 210°
2026-04-29 23:02 37.30357 -113.33054 8982 ft 193 kts 210°
2026-04-29 23:02 37.29173 -113.33813 8632 ft 192 kts 210°
2026-04-29 23:02 37.27962 -113.34585 8235 ft 196 kts 209°
2026-04-29 23:02 37.26774 -113.35342 7996 ft 191 kts 209°
2026-04-29 23:03 37.25626 -113.36175 7671 ft 189 kts 225°
2026-04-29 23:03 37.24642 -113.37270 7379 ft 188 kts 220°
2026-04-29 23:03 37.23608 -113.38245 7071 ft 186 kts 219°
2026-04-29 23:03 37.22564 -113.39212 6830 ft 186 kts 219°
2026-04-29 23:04 37.21526 -113.40166 6634 ft 184 kts 219°
2026-04-29 23:04 37.20506 -113.41103 6458 ft 184 kts 219°
2026-04-29 23:04 37.19444 -113.42085 6194 ft 191 kts 219°
2026-04-29 23:04 37.18381 -113.43057 5925 ft 190 kts 216°
2026-04-29 23:05 37.17236 -113.43853 5651 ft 184 kts 207°
2026-04-29 23:05 37.16095 -113.44475 5406 ft 173 kts 206°
2026-04-29 23:05 37.15014 -113.45020 5163 ft 164 kts 204°
2026-04-29 23:05 37.13980 -113.45574 4973 ft 161 kts 206°
2026-04-29 23:06 37.12937 -113.46128 4726 ft 162 kts 205°
2026-04-29 23:06 37.11930 -113.46659 4541 ft 155 kts 206°
2026-04-29 23:06 37.10920 -113.47192 4285 ft 158 kts 205°
2026-04-29 23:06 37.09892 -113.47731 4067 ft 162 kts 205°
2026-04-29 23:07 37.08858 -113.48275 3838 ft 159 kts 206°
2026-04-29 23:07 37.07852 -113.48805 3588 ft 154 kts 205°
2026-04-29 23:07 37.06852 -113.49332 3414 ft 159 kts 206°
2026-04-29 23:07 37.05831 -113.49845 3192 ft 163 kts 205°
2026-04-29 23:08 37.04775 -113.50413 2970 ft 165 kts 209°
2026-04-29 23:08 37.03754 -113.50983 2870 ft 146 kts 201°
2026-04-29 23:08 37.03015 -113.51361 2851 ft 83 kts 203°
2026-04-29 23:08 37.02887 -113.51429 2851 ft 66 kts 203°